Weather History for Killeen/Ft Hood, TX

Change the Weather History Date:

Thursday, October 31, 2013

  Actual Average Record
Temperature  
Mean Temperature 68 °F -  
Max Temperature 79 °F 72 °F 91 °F (1997)
Min Temperature 55 °F 55 °F 48 °F (2002)
Cooling Degree Days 3    
Growing Degree Days 18 (Base 50)    
Moisture  
Dew Point 56 °F    
Average Humidity 67    
Maximum Humidity 94    
Minimum Humidity 15    
Precipitation  
Precipitation 0.07 in - - ()
Sea Level Pressure  
Sea Level Pressure 29.88 in    
Wind  
Wind Speed 8 mph (SW)    
Max Wind Speed 26 mph    
Max Gust Speed 34 mph    
Visibility 10 miles    
Events Thunderstorm    
Averages and records for this station are not official NWS values.
T = Trace of Precipitation, MM = Missing Value Source: NWS Daily Summary

Daily Weather History Graph

Daily Weather History Graph

Search for Another Location

Airport:

Trip Planner

Search our weather history database for the weather conditions in past years. The results will help you decide how hot, cold, wet, or windy it might be!

Date:

Astronomy

Oct. 31, 2013 Rise Set
Actual Time 7:45 AM CDT 6:42 PM CDT
Civil Twilight 7:20 AM CDT 7:07 PM CDT
Nautical Twilight 6:52 AM CDT 7:36 PM CDT
Astronomical Twilight 6:23 AM CDT 8:04 PM CDT
Moon 4:47 AM CDT (10/31) 4:52 PM CDT (10/31)
Length of Visible Light 11h 47m
Length of Day
10h 57m
Waning Crescent, 10% of the Moon is Illuminated
Oct 31
Waning Crescent
Nov 3
New
Nov 9
First Quarter
Nov 17
Full
Nov 25
Last Quarter

Hourly Weather History & Observations

Time (CDT) Temp. Dew Point Humidity Pressure Visibility Wind Dir Wind Speed Gust Speed Precip Events Conditions
12:06 AM 73.4 °F 71.6 °F 94% 29.83 in 10.0 mi SE 9.2 mph - N/A   Overcast
12:30 AM 73.4 °F 71.6 °F 94% 29.81 in 10.0 mi South 5.8 mph - N/A   Overcast
12:56 AM 73.0 °F 71.1 °F 93% 29.86 in 10.0 mi SSE 3.5 mph - N/A   Overcast
1:56 AM 73.0 °F 70.0 °F 90% 29.84 in 10.0 mi SE 3.5 mph - N/A   Overcast
2:56 AM 73.0 °F 70.0 °F 90% 29.85 in 10.0 mi SSE 4.6 mph - N/A   Mostly Cloudy
3:56 AM 72.0 °F 69.1 °F 91% 29.83 in 10.0 mi ENE 5.8 mph - 0.03 in   Overcast
4:56 AM 72.0 °F 70.0 °F 93% 29.84 in 10.0 mi SSE 9.2 mph - 0.02 in   Overcast
5:56 AM 72.0 °F 69.1 °F 91% 29.83 in 10.0 mi SW 6.9 mph - 0.01 in   Overcast
6:04 AM 71.6 °F 69.8 °F 94% 29.77 in 10.0 mi SW 8.1 mph - N/A Thunderstorm Overcast
6:20 AM 71.6 °F 69.8 °F 94% 29.77 in 10.0 mi South 6.9 mph - N/A   Overcast
6:56 AM 72.0 °F 68.0 °F 87% 29.86 in 10.0 mi South 6.9 mph - N/A   Overcast
7:56 AM 70.0 °F 68.0 °F 93% 29.87 in 10.0 mi SSE 5.8 mph - 0.01 in   Clear
8:41 AM 69.8 °F 68.0 °F 94% 29.84 in 10.0 mi SSE 3.5 mph - N/A   Mostly Cloudy
8:56 AM 71.1 °F 68.0 °F 90% 29.91 in 10.0 mi South 3.5 mph - N/A   Mostly Cloudy
9:13 AM 71.6 °F 68.0 °F 88% 29.85 in 10.0 mi South 5.8 mph - N/A   Scattered Clouds
9:56 AM 75.0 °F 66.0 °F 73% 29.93 in 10.0 mi West 15.0 mph - N/A   Clear
10:56 AM 77.0 °F 60.1 °F 56% 29.92 in 10.0 mi WNW 17.3 mph - N/A   Clear
11:56 AM 78.1 °F 43.0 °F 29% 29.93 in 10.0 mi West 19.6 mph 27.6 mph N/A   Clear
12:56 PM 79.0 °F 28.9 °F 16% 29.91 in 10.0 mi West 26.5 mph 34.5 mph N/A   Clear
1:56 PM 79.0 °F 28.0 °F 15% 29.91 in 10.0 mi West 26.5 mph 34.5 mph N/A   Clear
2:56 PM 79.0 °F 34.0 °F 20% 29.89 in 10.0 mi WNW 20.7 mph 29.9 mph N/A   Clear
3:56 PM 79.0 °F 36.0 °F 21% 29.90 in 10.0 mi West 17.3 mph - N/A   Clear
4:56 PM 78.1 °F 37.0 °F 23% 29.90 in 10.0 mi NW 18.4 mph - N/A   Clear
5:56 PM 75.9 °F 39.0 °F 26% 29.91 in 10.0 mi WNW 10.4 mph - N/A   Clear
6:56 PM 71.1 °F 39.9 °F 32% 29.93 in 10.0 mi NW 4.6 mph - N/A   Clear
7:56 PM 64.9 °F 46.0 °F 50% 29.96 in 10.0 mi Calm Calm - N/A   Clear
8:56 PM 61.0 °F 46.9 °F 60% 29.98 in 10.0 mi Calm Calm - N/A   Clear
9:56 PM 57.9 °F 48.9 °F 72% 29.98 in 10.0 mi Calm Calm - N/A   Clear
10:56 PM 57.0 °F 48.0 °F 72% 29.97 in 10.0 mi Calm Calm - N/A   Clear
11:56 PM 55.9 °F 46.9 °F 72% 29.97 in 10.0 mi Calm Calm - N/A   Clear